Accueil
METAR-TAF:

METAR-TAF

Aéroports :

Ponape, Micronésie

NWS Office

latitude: 06-58N, longitude: 158-13E, altitude: 39 m

Observation

Le bulletin a été fait il y a 52 minutes, à 08:52 UTC
Vent 10 kt de nord/nord-est
Température 27°C
Humidité 89%
Pression 1006 hPa
Visibilité: 24.1 km
Nuages fragmentés à une hauteur de 1800 ft, Cumulus congestus.
Ciel couvert à une hauteur de 13000 ft

METAR: PTTP 240852Z 02010KT 15SM BKN018TCU OVC130 27/25 A2972 RMK TCU ALQDS SLP064 60002 8/27/ T02670252 52015

Heure: 20:44 (09:44 UTC)


TAF: absent

Observations et prévisions météorologiques de plus de 4000 aéroports (messages METAR et TAF).

Les stations disponibles sont représentées par des disques jaunes et rouges sur la carte.

Passer la souris dessus pour voir le nom de la station.

Cliquer dessus pour voir les observations et prévisions météorologiques.

Pour changer de carte: cliquez sur les boutons verts avec une croix noire pour zoomer, sur le bouton vert avec un tiret pour effectuer un zoom arrière, ou sur les flèches vertes pour les cartes adjacentes.


METAR-TAF: